Latest Coastal Weather Observations for Hamilton Island

IDQ60701

Issued at 8:51 am EST Saturday 22 July 2017 (issued every 10 minutes, with the page automatically refreshed every 10 minutes)

About coastal observations | Map of coastal stations | Coastal observations for QLD | Marine services | Other Formats
Station Details ID: 033106 Name: HAMILTON ISLAND AIRPORT Lat: -20.37 Lon: 148.95 Height: 58.66 m
Data from the previous 72 hours. | See also: Recent months at Hamilton Island
Date/Time
EST
Temp
°C
Wind Pressure Rain since
9am
mm
Weather Cloud Vis
km
Sea
Height
m
Swell
Dir  Spd
kts
Gust
kts
hPa Trend Height
m
Period
s
Dir
22/08:30am 20.5 SE 17 20 1021.5 - 0.0 - - 10 - - - -
22/08:00am 19.8 SE 17 20 1021.2 - 0.0 - - 10 - - - -
22/07:30am 19.3 SSE 17 19 1020.9 - 0.0 - - 10 - - - -
22/07:00am 18.7 SE 17 20 1020.7 - 0.0 - - 10 - - - -
22/06:30am 18.5 SE 16 19 1020.2 - 0.0 - - 10 - - - -
22/06:00am 18.5 SSE 15 18 1019.8 - 0.0 - - 10 - - - -
22/05:30am 18.5 SSE 14 17 1019.3 - 0.0 - - 10 - - - -
22/05:00am 18.5 SE 15 18 1019.1 - 0.0 - - 10 - - - -
22/04:30am 18.6 SE 14 17 1018.9 - 0.0 - - 10 - - - -
22/04:00am 18.5 SE 14 17 1018.9 - 0.0 - - 10 - - - -
22/03:30am 18.6 SSE 14 16 1018.9 - 0.0 - - 10 - - - -
22/03:00am 18.6 SE 15 17 1018.9 - 0.0 - - 10 - - - -
22/02:30am 19.0 SSE 15 18 1018.9 - 0.0 - - 10 - - - -
22/02:00am 19.1 SE 14 16 1019.0 - 0.0 - - 10 - - - -
22/01:30am 19.1 SE 13 16 1019.3 - 0.0 - - 10 - - - -
22/01:00am 19.2 SE 13 16 1019.3 - 0.0 - - 10 - - - -
22/12:30am 19.0 SE 13 15 1019.5 - 0.0 - - 10 - - - -
22/12:00am 18.8 ESE 11 14 1019.7 - 0.0 - - 10 - - - -
 
Date/Time
EST
Temp
°C
Wind Pressure Rain since
9am
mm
Weather Cloud Vis
km
Sea
Height
m
Swell
Dir  Spd
kts
Gust
kts
hPa Trend Height
m
Period
s
Dir
21/11:30pm 19.0 SE 13 15 1020.0 - 0.0 - - 10 - - - -
21/11:00pm 19.2 SE 12 15 1020.1 - 0.0 - - 10 - - - -
21/10:30pm 19.1 SE 12 14 1020.2 - 0.0 - - 10 - - - -
21/10:00pm 19.1 SE 12 16 1020.3 - 0.0 - - 10 - - - -
21/09:30pm 19.1 SE 12 15 1020.0 - 0.0 - - 10 - - - -
21/09:00pm 19.2 ESE 11 13 1019.8 - 0.0 - - 10 - - - -
21/08:30pm 19.1 SE 11 14 1019.6 - 0.0 - - 10 - - - -
21/08:00pm 19.4 ESE 11 13 1019.4 - 0.0 - - 10 - - - -
21/07:30pm 19.4 ESE 12 14 1019.0 - 0.0 - - 10 - - - -
21/07:00pm 19.3 ESE 13 16 1018.7 - 0.0 - - 10 - - - -
21/06:30pm 19.2 ESE 13 15 1018.3 - 0.0 - - 10 - - - -
21/06:00pm 19.3 ESE 14 17 1017.8 - 0.0 - - 10 - - - -
21/05:30pm 19.1 ESE 13 15 1017.7 - 0.0 - - 10 - - - -
21/05:00pm 19.2 ESE 14 16 1017.5 - 0.0 - - 10 - - - -
21/04:30pm 19.4 SE 13 16 1017.2 - 0.0 - - 10 - - - -
21/04:00pm 19.7 SE 12 14 1017.1 - 0.0 - - 10 - - - -
21/03:30pm 19.8 SSE 12 15 1017.0 - 0.0 - - 10 - - - -
21/03:00pm 20.1 SSE 14 17 1017.0 - 0.0 - - - - - - -
21/02:30pm 20.3 SSE 13 17 1017.1 - 0.0 - - - - - - -
21/02:00pm 20.7 SSE 13 17 1017.4 - 0.0 - - - - - - -
21/01:30pm 20.7 SSE 12 15 1017.8 - 0.0 - - - - - - -
21/01:00pm 20.4 SSE 12 15 1018.0 - 0.0 - - - - - - -
21/12:30pm 20.8 SSE 14 16 1018.4 - 0.0 - - - - - - -
21/12:00pm 21.5 SE 11 13 1018.6 - 0.0 - - - - - - -
21/11:30am 21.8 SE 12 15 1019.0 - 0.0 - Partly cloudy - - - - -
21/11:00am 20.7 SE 14 18 1019.5 - 0.0 - Partly cloudy 10 - - - -
21/10:30am 20.1 SSE 13 18 1020.0 - 0.0 - Partly cloudy 10 - - - -
21/10:00am 20.0 SSE 13 19 1020.3 - 0.0 - Partly cloudy 10 - - - -
21/09:30am 20.9 SE 13 17 1020.1 - 0.0 - Partly cloudy 10 - - - -
21/09:00am 20.8 SE 13 16 1019.4 - 0.0 - - 10 - - - -
21/08:30am 20.0 SE 13 15 1018.7 - 0.0 - Partly cloudy 10 - - - -
21/08:00am 19.2 SSE 12 16 1018.5 - 0.0 - - 10 - - - -
21/07:30am 19.0 SSE 12 17 1018.1 - 0.0 - - 10 - - - -
21/07:00am 18.3 S 12 15 1017.9 - 0.0 - - 10 - - - -
21/06:30am 18.1 SSE 11 14 1017.8 - 0.0 - - 10 - - - -
21/06:00am 18.4 SSE 10 17 1017.5 - 0.0 - - 10 - - - -
21/05:30am 18.2 SSE 12 16 1017.2 - 0.0 - - 10 - - - -
21/05:00am 18.1 SSE 10 14 1017.3 - 0.0 - - 10 - - - -
21/04:30am 17.9 S 10 13 1017.1 - 0.0 - - 10 - - - -
21/04:00am 17.8 S 9 12 1017.1 - 0.0 - - 10 - - - -
21/03:30am 17.8 S 11 14 1017.2 - 0.0 - - 10 - - - -
21/03:00am 18.2 S 10 13 1017.4 - 0.0 - Mostly clear 10 - - - -
21/02:30am 18.2 SSE 10 13 1017.2 - 0.0 - Partly cloudy 10 - - - -
21/02:00am 18.4 SSE 11 14 1017.2 - 0.0 - Partly cloudy 10 - - - -
21/01:30am 18.5 SE 13 15 1017.4 - 0.0 - - 10 - - - -
21/01:00am 18.5 SE 12 15 1017.7 - 0.0 - - 10 - - - -
21/12:30am 18.3 SE 10 12 1018.1 - 0.0 - - 10 - - - -
21/12:00am 18.5 SE 11 13 1018.2 - 0.0 - - 10 - - - -
 
Date/Time
EST
Temp
°C
Wind Pressure Rain since
9am
mm
Weather Cloud Vis
km
Sea
Height
m
Swell
Dir  Spd
kts
Gust
kts
hPa Trend Height
m
Period
s
Dir
20/11:30pm 18.6 SE 11 14 1018.3 - 0.0 - - 10 - - - -
20/11:00pm 18.5 SE 11 13 1018.6 - 0.0 - - 10 - - - -
20/10:30pm 18.6 ESE 10 12 1018.5 - 0.0 - - 10 - - - -
20/10:00pm 18.7 ESE 10 13 1018.8 - 0.0 - - 10 - - - -
20/09:30pm 18.8 ESE 10 13 1018.7 - 0.0 - - 10 - - - -
20/09:00pm 18.7 ESE 9 13 1018.5 - 0.0 - - 10 - - - -
20/08:30pm 18.2 SE 10 12 1018.4 - 0.0 - - 10 - - - -
20/08:00pm 18.5 ESE 11 15 1018.1 - 0.0 - - 10 - - - -
20/07:30pm 18.3 ESE 12 14 1017.8 - 0.0 - - 10 - - - -
20/07:00pm 18.3 ESE 12 16 1017.2 - 0.0 - - 10 - - - -
20/06:30pm 18.1 ESE 11 15 1017.1 - 0.0 - - 10 - - - -
20/06:00pm 18.1 ESE 12 15 1017.0 - 0.0 - - 10 - - - -
20/05:30pm 18.2 ESE 12 15 1016.9 - 0.0 - - 10 - - - -
20/05:00pm 18.3 ESE 13 15 1016.6 - 0.0 - - 10 - - - -
20/04:30pm 18.7 ESE 13 16 1016.4 - 0.0 - - 10 - - - -
20/04:00pm 18.7 ESE 13 16 1016.5 - 0.0 - - 10 - - - -
20/03:30pm 19.1 ESE 13 16 1016.6 - 0.0 - - 10 - - - -
20/03:00pm 19.5 SE 11 14 1016.8 - 0.0 - - 10 - - - -
20/02:30pm 19.6 SE 12 15 1016.9 - 0.0 - - 10 - - - -
20/02:00pm 19.6 SE 15 18 1017.2 - 0.0 - - 10 - - - -
20/01:30pm 19.5 SE 18 25 1017.4 - 0.0 - - 10 - - - -
20/01:00pm 19.6 SSE 19 24 1017.7 - 0.0 - - 10 - - - -
20/12:30pm 19.6 SE 20 25 1018.1 - 0.0 - - 10 - - - -
20/12:00pm 19.1 SSE 21 26 1018.6 - 0.0 - - 10 - - - -
20/11:30am 19.2 SE 21 25 1018.9 - 0.0 - - 10 - - - -
20/11:00am 19.0 SSE 22 26 1019.2 - 0.0 - - 10 - - - -
20/10:30am 19.1 SSE 23 27 1019.2 - 0.0 - - 10 - - - -
20/10:00am 19.1 SSE 23 27 1019.4 - 0.0 - - 10 - - - -
20/09:30am 19.1 SSE 23 28 1019.3 - 0.0 - - 10 - - - -
20/09:00am 19.0 SSE 22 27 1019.2 - 0.0 - - 10 - - - -
20/08:30am 19.2 SSE 23 28 1018.9 - 0.0 - - 10 - - - -
20/08:00am 18.8 SSE 23 27 1018.6 - 0.0 - - 10 - - - -
20/07:30am 18.7 SSE 23 28 1018.5 - 0.0 - - 10 - - - -
20/07:00am 18.5 SSE 23 28 1017.9 - 0.0 - - 10 - - - -
20/06:30am 18.7 SSE 24 28 1017.4 - 0.0 - - 10 - - - -
20/06:00am 18.9 SSE 23 28 1017.1 - 0.0 - - 10 - - - -
20/05:30am 18.7 SSE 19 25 1016.9 - 0.0 - - 10 - - - -
20/05:00am 19.0 SSE 19 27 1016.7 - 0.0 - - 10 - - - -
20/04:30am 18.6 S 17 23 1016.7 - 0.0 - - 10 - - - -
20/04:00am 18.9 SSE 17 21 1016.8 - 0.0 - - 10 - - - -
20/03:30am 19.3 SSE 17 21 1016.8 - 0.0 - - 10 - - - -
20/03:00am 19.3 S 18 22 1016.8 - 0.0 - - 10 - - - -
20/02:30am 19.7 S 18 22 1016.9 - 0.0 - - 10 - - - -
20/02:00am 20.2 S 19 24 1016.9 - 0.0 - - 10 - - - -
20/01:30am 20.5 S 20 25 1016.9 - 0.0 - - 10 - - - -
20/01:00am 21.2 SSE 20 25 1017.0 - 0.0 - - 10 - - - -
20/12:30am 21.4 S 17 21 1017.2 - 0.0 - - 10 - - - -
20/12:00am 22.0 S 16 22 1017.3 - 0.0 - - 10 - - - -
 
Date/Time
EST
Temp
°C
Wind Pressure Rain since
9am
mm
Weather Cloud Vis
km
Sea
Height
m
Swell
Dir  Spd
kts
Gust
kts
hPa Trend Height
m
Period
s
Dir
19/11:30pm 21.8 SSE 12 16 1017.5 - 0.0 - - 10 - - - -
19/11:00pm 21.2 S 9 11 1017.5 - 0.0 - - 10 - - - -
19/10:30pm 21.2 S 6 8 1017.5 - 0.0 - - 10 - - - -
19/10:00pm 20.8 SSW 6 7 1017.4 - 0.0 - - 10 - - - -
19/09:30pm 21.2 SSW 6 7 1017.1 - 0.0 - - 10 - - - -
19/09:00pm 21.0 SW 2 4 1017.0 - 0.0 - - 10 - - - -
19/08:30pm 21.4 SW 4 6 1016.6 - 0.0 - - 10 - - - -
19/08:00pm 21.6 WSW 2 4 1016.2 - 0.0 - - 10 - - - -
19/07:30pm 21.8 CALM 0 0 1015.9 - 0.0 - - 10 - - - -
19/07:00pm 21.7 CALM 0 0 1015.4 - 0.0 - - 10 - - - -
19/06:30pm 22.5 E 1 3 1014.9 - 0.0 - - 10 - - - -
19/06:00pm 22.7 ENE 3 5 1014.7 - 0.0 - - 10 - - - -
19/05:30pm 22.9 E 7 9 1014.2 - 0.0 - - 10 - - - -
19/05:00pm 22.8 ESE 8 9 1013.8 - 0.0 - - 10 - - - -
19/04:30pm 23.7 E 4 6 1013.4 - 0.0 - - 10 - - - -
19/04:00pm 23.4 ESE 9 10 1013.2 - 0.0 - - 10 - - - -
19/03:30pm 23.7 ESE 9 10 1013.0 - 0.0 - - 10 - - - -
19/03:00pm 24.9 ENE 4 6 1013.2 - 0.0 - - 10 - - - -
19/02:30pm 25.3 NNW 9 13 1013.0 - 0.0 - - 10 - - - -
19/02:00pm 25.7 NW 7 10 1013.1 - 0.0 - - 10 - - - -
19/01:30pm 26.3 NNW 8 9 1013.4 - 0.0 - - 10 - - - -
19/01:00pm 25.2 NNW 8 10 1014.1 - 0.0 - - 10 - - - -
19/12:30pm 25.2 NNW 10 12 1014.4 - 0.0 - - 10 - - - -
19/12:00pm 25.3 NNW 7 9 1015.2 - 0.0 - - 10 - - - -
19/11:30am 24.8 NW 8 9 1015.6 - 0.0 - - 10 - - - -
19/11:00am 24.6 NNW 7 9 1015.8 - 0.0 - - 10 - - - -
19/10:30am 23.9 NNW 9 10 1016.2 - 0.0 - - 10 - - - -
19/10:00am 22.6 NNW 7 9 1016.6 - 0.0 - - 10 - - - -
19/09:30am 22.3 NNW 6 7 1016.9 - 0.0 - - 10 - - - -
19/09:00am 21.7 WNW 2 4 1017.3 - 0.0 - - 10 - - - -

Other Formats:

Comma delimited format used in spreadsheet applications
http://www.bom.gov.au/fwo/IDQ60701/IDQ60701.94368.axf

JavaScript Object Notation format (JSON) in row-major order
http://www.bom.gov.au/fwo/IDQ60701/IDQ60701.94368.json